When you browse on this site, cookies collect data to enhance your experience and personalize the content and advertising you see.
Visit our Privacy Policy to learn more. By continuing to use the site, you agree to this use of cookies and data.

Stündliche Wetter Taskesken

Heute, 6 Juli, Montag

Zeit Temperatur Niederschläge Wind Luftdruck Luftfeuchtigkeit
00:00 +19°C° 0 mm 2 m/S 706 mmHg 53%
01:00 +19°C° 0 mm 3 m/S 706 mmHg 55%
02:00 +18°C° 0 mm 3 m/S 706 mmHg 56%
03:00 +19°C° 0 mm 2 m/S 706 mmHg 55%
04:00 +19°C° 0 mm 2 m/S 706 mmHg 53%
05:00 +20°C° 0 mm 2 m/S 706 mmHg 53%
06:00 +21°C° 0 mm 2 m/S 707 mmHg 49%
07:00 +24°C° 0 mm 3 m/S 707 mmHg 44%
08:00 +25°C° 0 mm 4 m/S 707 mmHg 39%
09:00 +26°C° 0 mm 4 m/S 707 mmHg 37%
10:00 +28°C° 0 mm 4 m/S 707 mmHg 35%
11:00 +28°C° 0 mm 5 m/S 708 mmHg 34%
12:00 +28°C° 0.2 mm 5 m/S 708 mmHg 37%
13:00 +27°C° 0.2 mm 5 m/S 708 mmHg 40%
14:00 +27°C° 0.2 mm 5 m/S 708 mmHg 43%
15:00 +27°C° 0.3 mm 5 m/S 708 mmHg 43%
16:00 +26°C° 0.3 mm 5 m/S 708 mmHg 44%
17:00 +26°C° 0.3 mm 6 m/S 708 mmHg 44%
18:00 +25°C° 0.7 mm 5 m/S 708 mmHg 51%
19:00 +22°C° 0.7 mm 3 m/S 708 mmHg 59%
20:00 +20°C° 0.7 mm 2 m/S 708 mmHg 67%
21:00 +20°C° 0.3 mm 2 m/S 708 mmHg 70%
22:00 +19°C° 0.3 mm 2 m/S 708 mmHg 72%
23:00 +18°C° 0.3 mm 2 m/S 708 mmHg 75%

Morgen, 7 Juli, Dienstag

Zeit Temperatur Niederschläge Wind Luftdruck Luftfeuchtigkeit
00:00 +18°C° 0 mm 2 m/S 708 mmHg 76%
01:00 +18°C° 0 mm 2 m/S 708 mmHg 77%
02:00 +18°C° 0 mm 2 m/S 708 mmHg 77%
03:00 +18°C° 0.2 mm 2 m/S 708 mmHg 78%
04:00 +18°C° 0.2 mm 3 m/S 709 mmHg 79%
05:00 +18°C° 0.2 mm 3 m/S 709 mmHg 79%
06:00 +19°C° 0.1 mm 3 m/S 709 mmHg 72%
07:00 +21°C° 0.1 mm 3 m/S 709 mmHg 66%
08:00 +22°C° 0.1 mm 3 m/S 709 mmHg 59%
09:00 +25°C° 0.5 mm 3 m/S 709 mmHg 53%
10:00 +26°C° 0.5 mm 3 m/S 709 mmHg 48%
11:00 +27°C° 0.5 mm 3 m/S 710 mmHg 42%
12:00 +28°C° 0.2 mm 3 m/S 709 mmHg 40%
13:00 +28°C° 0.2 mm 3 m/S 709 mmHg 38%
14:00 +28°C° 0.2 mm 4 m/S 709 mmHg 36%
15:00 +28°C° 0.1 mm 4 m/S 709 mmHg 36%
16:00 +29°C° 0.1 mm 4 m/S 710 mmHg 35%
17:00 +29°C° 0.1 mm 4 m/S 710 mmHg 35%
18:00 +26°C° 0.2 mm 4 m/S 710 mmHg 44%
19:00 +23°C° 0.2 mm 5 m/S 710 mmHg 53%
20:00 +21°C° 0.2 mm 5 m/S 710 mmHg 62%
21:00 +20°C° 0.1 mm 5 m/S 710 mmHg 63%
22:00 +20°C° 0.1 mm 4 m/S 710 mmHg 65%
23:00 +19°C° 0.1 mm 4 m/S 710 mmHg 67%

übermorgen, 8 Juli, Mittwoch

Zeit Temperatur Niederschläge Wind Luftdruck Luftfeuchtigkeit
00:00 +18°C° 0 mm 4 m/S 709 mmHg 67%
01:00 +18°C° 0 mm 3 m/S 709 mmHg 68%
02:00 +18°C° 0 mm 3 m/S 709 mmHg 68%
03:00 +18°C° 0 mm 3 m/S 709 mmHg 67%
04:00 +18°C° 0 mm 3 m/S 709 mmHg 67%
05:00 +18°C° 0 mm 3 m/S 709 mmHg 66%
06:00 +21°C° 0 mm 3 m/S 709 mmHg 58%
07:00 +24°C° 0 mm 3 m/S 710 mmHg 51%
08:00 +26°C° 0 mm 3 m/S 710 mmHg 43%
09:00 +27°C° 0 mm 3 m/S 710 mmHg 38%
10:00 +29°C° 0 mm 4 m/S 710 mmHg 33%
11:00 +30°C° 0 mm 4 m/S 710 mmHg 28%
12:00 +30°C° 0 mm 5 m/S 710 mmHg 27%
13:00 +32°C° 0 mm 5 m/S 710 mmHg 26%
14:00 +32°C° 0 mm 6 m/S 709 mmHg 26%
15:00 +30°C° 0 mm 6 m/S 709 mmHg 29%
16:00 +29°C° 0 mm 7 m/S 709 mmHg 32%
17:00 +28°C° 0 mm 8 m/S 709 mmHg 35%
18:00 +27°C° 0 mm 8 m/S 709 mmHg 39%
19:00 +24°C° 0 mm 8 m/S 709 mmHg 43%
20:00 +22°C° 0 mm 8 m/S 709 mmHg 47%
21:00 +21°C° 0 mm 7 m/S 709 mmHg 49%
22:00 +21°C° 0 mm 7 m/S 709 mmHg 51%
23:00 +20°C° 0 mm 7 m/S 709 mmHg 53%

9 Juli, Donnerstag

Zeit Temperatur Niederschläge Wind Luftdruck Luftfeuchtigkeit
00:00 +18°C° 0 mm 7 m/S 709 mmHg 55%
01:00 +19°C° 0 mm 6 m/S 709 mmHg 58%
02:00 +19°C° 0 mm 6 m/S 708 mmHg 60%
03:00 +19°C° 0 mm 6 m/S 708 mmHg 59%
04:00 +19°C° 0 mm 6 m/S 708 mmHg 59%
05:00 +19°C° 0 mm 5 m/S 708 mmHg 58%
06:00 +21°C° 0 mm 4 m/S 709 mmHg 52%
07:00 +24°C° 0 mm 3 m/S 709 mmHg 46%
08:00 +26°C° 0 mm 2 m/S 709 mmHg 39%
09:00 +27°C° 0 mm 3 m/S 709 mmHg 35%
10:00 +29°C° 0 mm 3 m/S 709 mmHg 30%
11:00 +30°C° 0 mm 3 m/S 709 mmHg 26%
12:00 +31°C° 0 mm 3 m/S 708 mmHg 24%
13:00 +33°C° 0 mm 4 m/S 708 mmHg 23%
14:00 +33°C° 0 mm 4 m/S 708 mmHg 21%
15:00 +33°C° 0 mm 5 m/S 707 mmHg 23%
16:00 +32°C° 0 mm 6 m/S 707 mmHg 25%
17:00 +32°C° 0 mm 7 m/S 707 mmHg 28%
18:00 +29°C° 0 mm 7 m/S 707 mmHg 33%
19:00 +27°C° 0 mm 7 m/S 707 mmHg 39%
20:00 +24°C° 0 mm 7 m/S 707 mmHg 45%
21:00 +23°C° 0 mm 7 m/S 706 mmHg 49%
22:00 +22°C° 0 mm 7 m/S 706 mmHg 52%
23:00 +21°C° 0 mm 7 m/S 706 mmHg 55%

10 Juli, Freitag

Zeit Temperatur Niederschläge Wind Luftdruck Luftfeuchtigkeit
00:00 +20°C° 0 mm 7 m/S 706 mmHg 57%
01:00 +20°C° 0 mm 7 m/S 706 mmHg 59%
02:00 +20°C° 0 mm 6 m/S 705 mmHg 61%
03:00 +20°C° 0 mm 6 m/S 705 mmHg 61%
04:00 +20°C° 0 mm 6 m/S 705 mmHg 62%
05:00 +20°C° 0 mm 5 m/S 705 mmHg 62%
06:00 +22°C° 0 mm 5 m/S 706 mmHg 55%
07:00 +25°C° 0 mm 5 m/S 706 mmHg 48%
08:00 +27°C° 0 mm 4 m/S 706 mmHg 41%
09:00 +28°C° 0 mm 4 m/S 706 mmHg 37%
10:00 +30°C° 0 mm 4 m/S 706 mmHg 33%
11:00 +32°C° 0 mm 4 m/S 706 mmHg 30%
12:00 +32°C° 0 mm 5 m/S 705 mmHg 30%
13:00 +33°C° 0 mm 6 m/S 705 mmHg 31%
14:00 +33°C° 0 mm 6 m/S 705 mmHg 31%
15:00 +33°C° 0 mm 6 m/S 704 mmHg 33%
16:00 +32°C° 0 mm 6 m/S 704 mmHg 34%
17:00 +30°C° 0 mm 6 m/S 704 mmHg 36%
18:00 +29°C° 0 mm 6 m/S 704 mmHg 42%
19:00 +27°C° 0 mm 5 m/S 704 mmHg 49%
20:00 +25°C° 0 mm 5 m/S 704 mmHg 56%
21:00 +23°C° 0 mm 4 m/S 704 mmHg 61%
22:00 +22°C° 0 mm 4 m/S 704 mmHg 66%
23:00 +21°C° 0 mm 4 m/S 704 mmHg 71%

11 Juli, Samstag

Zeit Temperatur Niederschläge Wind Luftdruck Luftfeuchtigkeit
00:00 +21°C° 0 mm 4 m/S 704 mmHg 71%
01:00 +21°C° 0 mm 5 m/S 704 mmHg 71%
02:00 +21°C° 0 mm 6 m/S 704 mmHg 71%
03:00 +21°C° 0 mm 6 m/S 704 mmHg 69%
04:00 +20°C° 0 mm 6 m/S 704 mmHg 67%
05:00 +20°C° 0 mm 6 m/S 704 mmHg 65%
06:00 +21°C° 0 mm 6 m/S 705 mmHg 57%
07:00 +22°C° 0 mm 6 m/S 705 mmHg 49%
08:00 +23°C° 0 mm 6 m/S 706 mmHg 41%
09:00 +26°C° 0 mm 7 m/S 706 mmHg 36%
10:00 +27°C° 0 mm 7 m/S 706 mmHg 31%
11:00 +28°C° 0 mm 7 m/S 706 mmHg 27%
12:00 +29°C° 0 mm 7 m/S 706 mmHg 26%
13:00 +29°C° 0 mm 8 m/S 706 mmHg 25%
14:00 +29°C° 0 mm 8 m/S 706 mmHg 25%
15:00 +29°C° 0 mm 8 m/S 706 mmHg 27%
16:00 +28°C° 0 mm 9 m/S 706 mmHg 29%
17:00 +27°C° 0 mm 9 m/S 706 mmHg 31%
18:00 +24°C° 0 mm 8 m/S 706 mmHg 36%
19:00 +23°C° 0 mm 8 m/S 707 mmHg 41%
20:00 +21°C° 0 mm 7 m/S 707 mmHg 46%
21:00 +20°C° 0 mm 7 m/S 707 mmHg 48%
22:00 +18°C° 0 mm 7 m/S 707 mmHg 50%
23:00 +17°C° 0 mm 7 m/S 707 mmHg 52%
Mehr zeigen